Ask Your Question

catbill's profile - karma

catbill's karma change log

10 0 what is needed in crash report ( 2018-03-09 13:07:13 +0200 )

2 0 some text flush left and other text flush right on same line ( 2018-03-08 20:44:13 +0200 )

2 0 insert paragraph break before numbers ( 2018-03-07 05:04:25 +0200 )

10 0 insert paragraph break before numbers ( 2018-03-06 21:54:14 +0200 )

0 -2 how to use search & replace to make superscripts? ( 2018-03-04 02:24:14 +0200 )

2 0 how to use search & replace to make superscripts? ( 2018-03-04 02:24:14 +0200 )

10 0 Regular expressions to move punctuation from after to before superscripts ( 2018-03-02 18:05:17 +0200 )

2 0 how delete caption and frame? ( 2018-02-27 18:12:03 +0200 )

2 0 How to insert special characters using unicode for each system ( 2018-02-27 05:41:14 +0200 )

2 0 Missing "insert special characters" buttons ( 2018-02-26 21:31:35 +0200 )

10 0 Is my understanding of how spelling dictionaries work correct? ( 2018-02-26 07:24:06 +0200 )

2 0 What is the Standard dictionary? ( 2018-02-25 18:32:04 +0200 )

2 0 How do manual indents/tabs work with styles? ( 2018-02-25 00:18:17 +0200 )

2 0 what is logic of find and replace for paragraph marks ( 2018-02-09 19:36:16 +0200 )

2 0 what makes a good tag? ( 2018-02-08 03:50:12 +0200 )

10 0 what makes a good tag? ( 2018-02-06 00:50:18 +0200 )

0 -10 what makes a good tag? ( 2018-02-06 00:50:15 +0200 )

10 0 what makes a good tag? ( 2018-02-06 00:50:12 +0200 )

0 -10 what makes a good tag? ( 2018-02-06 00:50:12 +0200 )

10 0 what makes a good tag? ( 2018-02-06 00:38:34 +0200 )

2 0 What does the F6 shortcut do? ( 2018-02-05 17:31:38 +0200 )

2 0 Why right-to-left/left-to-right icons on property deck? ( 2018-02-05 16:29:27 +0200 )

10 0 what makes a good tag? ( 2018-02-05 02:34:38 +0200 )

2 0 What is {gv-GB} in language setting?? ( 2018-02-04 21:01:12 +0200 )

2 0 how to open small special character window ( 2018-02-04 16:21:44 +0200 )

10 0 what makes a good tag? ( 2018-02-04 09:48:33 +0200 )

10 0 what makes a good tag? ( 2018-02-04 07:51:04 +0200 )

2 0 What exactly is direct formatting? ( 2018-02-04 01:23:52 +0200 )

2 0 can hyperlinks be converted to cross-references? ( 2018-02-01 05:25:58 +0200 )

10 0 can hyperlinks be converted to cross-references? ( 2018-02-01 01:35:11 +0200 )

2 0 What determines the attributes contained in a character style? ( 2018-01-30 03:46:56 +0200 )

2 0 Why does formatting show attributes of both Paragraph and Character styles? ( 2018-01-30 01:59:48 +0200 )

2 0 what does Shift Backspace do? ( 2018-01-29 03:18:32 +0200 )

10 0 what does Shift Backspace do? ( 2018-01-29 01:24:51 +0200 )

2 0 clear formatting vs clear direct formatting ( 2018-01-29 01:19:18 +0200 )

2 0 Help files for Version 6 and multiple versions installed? ( 2018-01-28 21:54:29 +0200 )

2 0 What is restore editing view in Writer? ( 2018-01-28 20:01:57 +0200 )

2 0 In styles, why font size percent vs points? ( 2018-01-27 18:09:17 +0200 )

2 0 Why is "inherit from" style grayed out ( 2018-01-24 19:50:33 +0200 )

10 0 how get color changer to work in Draw? ( 2018-01-24 05:10:25 +0200 )

2 0 how get color changer to work in Draw? ( 2018-01-24 04:48:30 +0200 )

2 0 meta vs common tags ( 2017-11-29 23:09:15 +0200 )

0 -2 who are the contributors ( 2017-11-29 00:35:07 +0200 )

2 0 who are the contributors ( 2017-11-29 00:35:07 +0200 )

0 -2 who are the contributors ( 2017-11-29 00:34:57 +0200 )

2 0 who are the contributors ( 2017-11-29 00:34:57 +0200 )

2 0 who are the contributors ( 2017-11-29 00:34:50 +0200 )

0 -2 who are the contributors ( 2017-11-29 00:34:47 +0200 )

0 -2 who are the contributors ( 2017-11-29 00:34:47 +0200 )

2 0 who are the contributors ( 2017-11-29 00:34:47 +0200 )

2 0 who are the contributors ( 2017-11-29 00:34:43 +0200 )

2 0 advice for using both OpenOffice and LibreOffice ( 2017-11-28 20:03:35 +0200 )

2 0 what is needed in crash report ( 2017-11-22 23:39:20 +0200 )

10 0 what is needed in crash report ( 2017-11-18 10:10:53 +0200 )

2 0 What is WWNum? ( 2017-11-16 21:22:15 +0200 )

2 0 can't anchor image in header ( 2017-11-16 21:20:02 +0200 )

0 -2 can't anchor image in header ( 2017-11-16 21:20:00 +0200 )

0 -2 can't anchor image in header ( 2017-11-16 21:19:59 +0200 )

2 0 can't anchor image in header ( 2017-11-16 21:19:59 +0200 )

2 0 By default, can comments be printed in margins? ( 2017-11-16 21:10:48 +0200 )

2 0 How to retain formatting when pasting text ( 2017-11-16 20:53:52 +0200 )

2 0 What is best option for a box with text that will be converted to Word? ( 2017-11-16 20:33:55 +0200 )

0 -2 how to use search & replace to make superscripts? ( 2017-11-16 20:33:26 +0200 )

2 0 how to use search & replace to make superscripts? ( 2017-11-16 20:33:25 +0200 )

2 0 how to use search & replace to make superscripts? ( 2017-11-16 20:33:22 +0200 )

2 0 How to get question answered? ( 2017-09-10 18:54:18 +0200 )

2 0 How stop automatic bullets? ( 2017-09-10 18:35:07 +0200 )

2 0 how lighten & resize pdf in Draw ( 2017-09-10 18:33:38 +0200 )

2 0 Can I know if Excel file with macros is safe? ( 2017-09-10 18:32:49 +0200 )

2 0 how to redirect help link ( 2017-09-10 18:32:00 +0200 )

2 0 how use same footnote symbol ( 2017-09-10 18:31:23 +0200 )

0 -2 which version LO installed: 64 or 32 ( 2017-09-05 02:13:15 +0200 )

2 0 which version LO installed: 64 or 32 ( 2017-09-05 02:13:15 +0200 )

0 -2 which version LO installed: 64 or 32 ( 2017-09-05 02:09:20 +0200 )

2 0 which version LO installed: 64 or 32 ( 2017-09-05 02:09:20 +0200 )

2 0 which version LO installed: 64 or 32 ( 2017-09-05 02:09:18 +0200 )

0 -2 how convert from text to numbers after importing ( 2017-08-26 01:32:25 +0200 )

2 0 how convert from text to numbers after importing ( 2017-08-26 01:32:25 +0200 )

2 0 Are there limits to template contents or size? ( 2017-08-26 01:26:29 +0200 )

0 -2 how convert from text to numbers after importing ( 2017-08-26 01:20:10 +0200 )

2 0 how convert from text to numbers after importing ( 2017-08-26 01:20:10 +0200 )

2 0 how convert from text to numbers after importing ( 2017-08-26 01:20:07 +0200 )

2 0 what is causing background color/shade in Draw? ( 2017-08-15 19:55:50 +0200 )

2 0 how know much memory cache needed ( 2017-07-27 03:58:48 +0200 )

10 0 how convert from text to numbers after importing ( 2017-02-22 18:04:27 +0200 )

0 -2 can't anchor image in header ( 2017-02-07 18:31:01 +0200 )

2 0 can't anchor image in header ( 2017-02-07 18:31:01 +0200 )

2 0 can't anchor image in header ( 2017-02-07 18:30:58 +0200 )